When you browse on this site, cookies collect data to enhance your experience and personalize the content and advertising you see.
Visit our Privacy Policy to learn more. By continuing to use the site, you agree to this use of cookies and data.
  • In Hungary
  • List of Countries
  • For 7 days
  • Water Temperature
  • Weather Map
  • News
  • Weather Widgets
  • user-avatar
    Login

    Hourly Weather Dubnyky

    Today, 20 August, Tuesday

    Time Temperature Precipitation Wind Pressure Humidity
    00:00 +20°C° 0 mm 2 mps 745 mmHg 75%
    01:00 +19°C° 0 mm 2 mps 745 mmHg 75%
    02:00 +19°C° 0 mm 2 mps 745 mmHg 75%
    03:00 +19°C° 0 mm 2 mps 746 mmHg 74%
    04:00 +18°C° 0 mm 2 mps 746 mmHg 74%
    05:00 +18°C° 0 mm 2 mps 746 mmHg 73%
    06:00 +20°C° 0 mm 2 mps 746 mmHg 70%
    07:00 +21°C° 0 mm 2 mps 746 mmHg 67%
    08:00 +23°C° 0 mm 2 mps 747 mmHg 64%
    09:00 +25°C° 0 mm 2 mps 747 mmHg 59%
    10:00 +27°C° 0 mm 2 mps 747 mmHg 54%
    11:00 +29°C° 0 mm 2 mps 747 mmHg 50%
    12:00 +29°C° 0 mm 2 mps 747 mmHg 48%
    13:00 +30°C° 0 mm 2 mps 747 mmHg 47%
    14:00 +31°C° 0 mm 2 mps 747 mmHg 45%
    15:00 +31°C° 0 mm 2 mps 747 mmHg 48%
    16:00 +30°C° 0 mm 2 mps 747 mmHg 50%
    17:00 +30°C° 0 mm 1 mps 747 mmHg 53%
    18:00 +28°C° 0 mm 1 mps 747 mmHg 57%
    19:00 +26°C° 0 mm 1 mps 747 mmHg 62%
    20:00 +24°C° 0 mm 1 mps 747 mmHg 67%
    21:00 +23°C° 0 mm 1 mps 747 mmHg 68%
    22:00 +23°C° 0 mm 1 mps 747 mmHg 69%
    23:00 +22°C° 0 mm 1 mps 747 mmHg 70%

    Tomorrow, 21 August, Wednesday

    Time Temperature Precipitation Wind Pressure Humidity
    00:00 +21°C° 0 mm 2 mps 747 mmHg 70%
    01:00 +20°C° 0 mm 2 mps 747 mmHg 70%
    02:00 +20°C° 0 mm 2 mps 747 mmHg 70%
    03:00 +19°C° 0 mm 2 mps 747 mmHg 69%
    04:00 +19°C° 0 mm 2 mps 747 mmHg 69%
    05:00 +19°C° 0 mm 2 mps 746 mmHg 68%
    06:00 +20°C° 0 mm 2 mps 747 mmHg 65%
    07:00 +21°C° 0 mm 2 mps 747 mmHg 62%
    08:00 +24°C° 0 mm 2 mps 747 mmHg 59%
    09:00 +26°C° 0 mm 2 mps 747 mmHg 54%
    10:00 +28°C° 0 mm 3 mps 747 mmHg 50%
    11:00 +29°C° 0 mm 3 mps 747 mmHg 46%
    12:00 +30°C° 0 mm 3 mps 747 mmHg 44%
    13:00 +31°C° 0 mm 3 mps 747 mmHg 42%
    14:00 +31°C° 0 mm 3 mps 746 mmHg 40%
    15:00 +31°C° 0 mm 2 mps 746 mmHg 44%
    16:00 +31°C° 0 mm 2 mps 746 mmHg 47%
    17:00 +31°C° 0 mm 2 mps 746 mmHg 50%
    18:00 +28°C° 0 mm 1 mps 746 mmHg 55%
    19:00 +26°C° 0 mm 1 mps 746 mmHg 59%
    20:00 +24°C° 0 mm 1 mps 746 mmHg 64%
    21:00 +23°C° 0 mm 2 mps 746 mmHg 70%
    22:00 +21°C° 0 mm 2 mps 747 mmHg 76%
    23:00 +21°C° 0 mm 3 mps 747 mmHg 83%

    Day after tomorrow, 22 August, Thursday

    Time Temperature Precipitation Wind Pressure Humidity
    00:00 +20°C° 0.1 mm 3 mps 747 mmHg 86%
    01:00 +20°C° 0.1 mm 4 mps 747 mmHg 89%
    02:00 +19°C° 0.1 mm 4 mps 747 mmHg 92%
    03:00 +19°C° 0.2 mm 4 mps 747 mmHg 93%
    04:00 +18°C° 0.2 mm 4 mps 748 mmHg 93%
    05:00 +17°C° 0.2 mm 3 mps 748 mmHg 94%
    06:00 +18°C° 0 mm 3 mps 748 mmHg 92%
    07:00 +18°C° 0 mm 3 mps 748 mmHg 91%
    08:00 +18°C° 0 mm 3 mps 749 mmHg 90%
    09:00 +18°C° 0 mm 4 mps 749 mmHg 87%
    10:00 +18°C° 0 mm 4 mps 749 mmHg 85%
    11:00 +18°C° 0 mm 4 mps 749 mmHg 83%
    12:00 +19°C° 0 mm 3 mps 749 mmHg 79%
    13:00 +19°C° 0 mm 3 mps 749 mmHg 76%
    14:00 +20°C° 0 mm 3 mps 749 mmHg 73%
    15:00 +20°C° 0 mm 3 mps 749 mmHg 73%
    16:00 +20°C° 0 mm 3 mps 749 mmHg 73%
    17:00 +20°C° 0 mm 3 mps 749 mmHg 73%
    18:00 +19°C° 0 mm 2 mps 749 mmHg 78%
    19:00 +18°C° 0 mm 2 mps 750 mmHg 83%
    20:00 +18°C° 0 mm 1 mps 750 mmHg 87%
    21:00 +16°C° 0 mm 1 mps 750 mmHg 89%
    22:00 +16°C° 0 mm 1 mps 750 mmHg 90%
    23:00 +16°C° 0 mm 2 mps 750 mmHg 91%

    23 August, Friday

    Time Temperature Precipitation Wind Pressure Humidity
    00:00 +15°C° 0 mm 2 mps 750 mmHg 92%
    01:00 +15°C° 0 mm 2 mps 750 mmHg 94%
    02:00 +15°C° 0 mm 2 mps 750 mmHg 95%
    03:00 +14°C° 0 mm 2 mps 750 mmHg 95%
    04:00 +14°C° 0 mm 2 mps 750 mmHg 96%
    05:00 +13°C° 0 mm 2 mps 750 mmHg 96%
    06:00 +15°C° 0 mm 2 mps 750 mmHg 90%
    07:00 +16°C° 0 mm 3 mps 751 mmHg 84%
    08:00 +18°C° 0 mm 3 mps 751 mmHg 78%
    09:00 +19°C° 0 mm 3 mps 751 mmHg 70%
    10:00 +21°C° 0 mm 3 mps 751 mmHg 63%
    11:00 +24°C° 0 mm 3 mps 751 mmHg 55%
    12:00 +25°C° 0 mm 3 mps 751 mmHg 51%
    13:00 +25°C° 0 mm 3 mps 751 mmHg 48%
    14:00 +26°C° 0 mm 3 mps 751 mmHg 44%
    15:00 +25°C° 0 mm 3 mps 751 mmHg 46%
    16:00 +25°C° 0 mm 3 mps 751 mmHg 49%
    17:00 +25°C° 0 mm 3 mps 751 mmHg 51%
    18:00 +21°C° 0 mm 2 mps 751 mmHg 58%
    19:00 +19°C° 0 mm 2 mps 751 mmHg 65%
    20:00 +17°C° 0 mm 2 mps 751 mmHg 72%
    21:00 +16°C° 0 mm 2 mps 751 mmHg 75%
    22:00 +15°C° 0 mm 2 mps 751 mmHg 77%
    23:00 +14°C° 0 mm 2 mps 752 mmHg 80%

    24 August, Saturday

    Time Temperature Precipitation Wind Pressure Humidity
    00:00 +14°C° 0 mm 2 mps 752 mmHg 81%
    01:00 +14°C° 0 mm 2 mps 752 mmHg 82%
    02:00 +13°C° 0 mm 1 mps 752 mmHg 83%
    03:00 +13°C° 0 mm 1 mps 752 mmHg 84%
    04:00 +13°C° 0 mm 1 mps 751 mmHg 86%
    05:00 +12°C° 0 mm 1 mps 751 mmHg 87%
    06:00 +14°C° 0 mm 1 mps 752 mmHg 81%
    07:00 +16°C° 0 mm 1 mps 752 mmHg 74%
    08:00 +18°C° 0 mm 2 mps 752 mmHg 68%
    09:00 +19°C° 0 mm 2 mps 752 mmHg 62%
    10:00 +21°C° 0 mm 2 mps 752 mmHg 56%
    11:00 +24°C° 0 mm 2 mps 752 mmHg 49%
    12:00 +24°C° 0 mm 2 mps 752 mmHg 46%
    13:00 +25°C° 0 mm 2 mps 751 mmHg 44%
    14:00 +26°C° 0 mm 2 mps 751 mmHg 41%
    15:00 +25°C° 0 mm 2 mps 751 mmHg 43%
    16:00 +25°C° 0 mm 2 mps 750 mmHg 46%
    17:00 +25°C° 0 mm 2 mps 750 mmHg 49%
    18:00 +21°C° 0 mm 2 mps 750 mmHg 54%
    19:00 +19°C° 0 mm 2 mps 750 mmHg 59%
    20:00 +18°C° 0 mm 1 mps 750 mmHg 65%
    21:00 +16°C° 0 mm 1 mps 750 mmHg 67%
    22:00 +16°C° 0 mm 2 mps 750 mmHg 68%
    23:00 +15°C° 0 mm 2 mps 750 mmHg 70%

    25 August, Sunday

    Time Temperature Precipitation Wind Pressure Humidity
    00:00 +15°C° 0 mm 2 mps 750 mmHg 71%
    01:00 +15°C° 0 mm 2 mps 749 mmHg 72%
    02:00 +14°C° 0 mm 2 mps 749 mmHg 73%
    03:00 +14°C° 0 mm 2 mps 749 mmHg 73%
    04:00 +14°C° 0 mm 2 mps 749 mmHg 73%
    05:00 +13°C° 0 mm 2 mps 749 mmHg 73%
    06:00 +15°C° 0 mm 2 mps 749 mmHg 70%
    07:00 +16°C° 0 mm 2 mps 749 mmHg 68%
    08:00 +18°C° 0 mm 3 mps 749 mmHg 65%
    09:00 +20°C° 0 mm 3 mps 749 mmHg 59%
    10:00 +22°C° 0 mm 3 mps 749 mmHg 54%
    11:00 +25°C° 0 mm 3 mps 749 mmHg 49%
    12:00 +26°C° 0 mm 3 mps 748 mmHg 47%
    13:00 +27°C° 0 mm 3 mps 748 mmHg 45%
    14:00 +27°C° 0 mm 3 mps 748 mmHg 43%
    15:00 +27°C° 0 mm 3 mps 747 mmHg 46%
    16:00 +27°C° 0 mm 2 mps 747 mmHg 49%
    17:00 +26°C° 0 mm 2 mps 747 mmHg 53%
    18:00 +24°C° 0 mm 2 mps 747 mmHg 57%
    19:00 +21°C° 0 mm 2 mps 747 mmHg 62%
    20:00 +19°C° 0 mm 2 mps 747 mmHg 67%
    21:00 +18°C° 0 mm 2 mps 747 mmHg 67%
    22:00 +18°C° 0 mm 2 mps 747 mmHg 68%
    23:00 +17°C° 0 mm 2 mps 747 mmHg 68%
    Show more